This demonstration page uses our WeatherBlox Daily Observations layout. Learn more.

Left ArrowRight Arrow

Hourly Observations for March 7, 2019

Temp ( °F °C ) Dew Point ( °F °C ) Humidity (%) Winds ( mph kmh ) Pressure ( in mb ) Visibility ( mi km ) Precip ( " mm )
12:55 am 00:55 Cloudy 25 -4 23 -5 93 93 ENE 14 22 30.21 1023 10 16 0.00 0.00
12:57 am 00:57 Cloudy 25 -3.9 23 -5 92 92 ENE 15 24 30.14 1021 10 16 0.00 0.03
1:54 am 01:54 Cloudy 25 -4 25 -4 100 100 ENE 18 30 30.19 1022 8 13 0.00 0.03
1:57 am 01:57 Cloudy 25 -3.9 24 -4.4 96 96 ENE 18 30 30.13 1020 9 14 0.00 0.03
2:57 am 02:57 Cloudy with Light Snow 26 -3.3 24 -4.4 92 92 ENE 15 24 30.14 1021 9 14 0.00 0.03
3:34 am 03:34 Cloudy with Light Snow 25 -4 25 -4 100 100 ENE 17 28 30.18 1022 6 10 0.00 0.03
3:52 am 03:52 Windy with Snow Likely 25 -4 23 -5 93 93 ENE 20 31 30.18 1022 4 6 0.00 0.03
3:57 am 03:57 Cloudy with Light Snow 24 -4.4 23 -5 96 96 ENE 18 30 30.11 1020 3 5 0.00 0.03
4:57 am 04:57 Cloudy with Light Snow 25 -3.9 24 -4.4 96 96 E 16 26 30.09 1019 4 6 0.00 0.03
5:06 am 05:06 Cloudy with Light Snow 25 -4 25 -4 100 100 E 18 30 30.15 1021 5 8 0.00 0.03
5:57 am 05:57 Mostly Cloudy with Light Snow 25 -3.9 24 -4.4 96 96 E 16 26 30.11 1020 7 11 0.00 0.03
6:57 am 06:57 Cloudy with Light Snow 25 -3.9 24 -4.4 96 96 E 17 28 30.11 1020 3 4 0.00 0.03
7:09 am 07:09 Cloudy with Light Snow 25 -4 25 -4 100 100 E 18 30 30.16 1021 2 3 0.00 0.00
7:28 am 07:28 Cloudy with Light Snow 25 -4 25 -4 100 100 E 18 30 30.16 1021 1 1 0.00 0.03
7:43 am 07:43 Cloudy with Light Snow 25 -4 25 -4 100 100 E 17 28 30.17 1022 1 2 0.00 0.03
7:57 am 07:57 Cloudy with Light Snow 25 -3.9 24 -4.4 96 96 E 17 28 30.11 1020 1 2 0.00 0.03
8:06 am 08:06 Cloudy with Light Snow 25 -4 23 -5 93 93 E 14 22 30.18 1022 2 3 0.00 0.03
8:24 am 08:24 Cloudy with Light Snow 25 -4 25 -4 100 100 E 15 24 30.18 1022 4 6 0.00 0.03
8:57 am 08:57 Cloudy with Light Snow 26 -3.3 23 -5 88 88 E 15 24 30.13 1020 5 8 0.00 0.03
9:33 am 09:33 Cloudy with Mist and Fog 27 -3 25 -4 93 93 ESE 22 35 30.14 1021 4 6 0.00 0.03
9:57 am 09:57 Cloudy with Light Snow 28 -2.2 25 -3.9 88 88 ESE 17 28 30.11 1020 4 6 0.00 0.03
10:57 am 10:57 Cloudy with Light Snow 28 -2.2 25 -3.9 88 88 E 15 24 30.11 1020 5 8 0.00 0.03
11:57 am 11:57 Cloudy with Mist and Fog 28 -2.2 25 -3.9 88 88 E 15 24 30.11 1020 6 10 0.00 0.03
12:57 pm 12:57 Cloudy with Mist and Fog 29 -1.7 25 -3.9 85 85 E 15 24 30.07 1018 6 10 0.00 0.00
1:57 pm 13:57 Cloudy with Mist and Fog 28 -2.2 25 -3.9 88 88 E 15 24 30.05 1018 6 10 0.00 0.00
2:57 pm 14:57 Cloudy 28 -2.2 24 -4.4 85 85 E 15 24 30.04 1017 7 11 0.00 0.00
3:57 pm 15:57 Cloudy 28 -2.2 24 -4.4 85 85 E 13 20 30.05 1018 7 11 0.00 0.00
4:57 pm 16:57 Cloudy with Mist and Fog 27 -2.8 24 -4.4 89 89 ENE 10 17 30.05 1018 6 10 0.00 0.00
5:57 pm 17:57 Cloudy with Mist and Fog 26 -3.3 24 -4.4 92 92 ENE 9 15 30.05 1018 5 8 0.00 0.00
6:57 pm 18:57 Cloudy 26 -3.3 24 -4.4 92 92 ENE 9 15 30.06 1018 7 11 0.00 0.00
7:57 pm 19:57 Cloudy with Mist and Fog 25 -3.9 24 -4.4 96 96 ENE 9 15 30.06 1018 6 10 0.00 0.00
8:12 pm 20:12 Cloudy with Mist and Fog 25 -4 25 -4 100 100 E 7 11 30.12 1020 6 10 0.00 0.00
8:32 pm 20:32 Cloudy 25 -4 25 -4 100 100 E 10 17 30.11 1020 7 11 0.00 0.00
8:57 pm 20:57 Cloudy 25 -3.9 24 -4.4 96 96 E 8 13 30.05 1018 7 11 0.00 0.00
9:16 pm 21:16 Cloudy with Mist and Fog 25 -4 23 -5 93 93 ENE 8 13 30.11 1020 5 8 0.00 0.00
9:28 pm 21:28 Cloudy with Mist and Fog 25 -4 23 -5 93 93 ENE 6 9 30.11 1020 5 8 0.00 0.00
9:57 pm 21:57 Cloudy with Mist and Fog 25 -3.9 23 -5 92 92 ENE 6 9 30.06 1018 4 6 0.00 0.03
10:57 pm 22:57 Cloudy with Mist and Fog 25 -3.9 23 -5 92 92 ENE 3 6 30.06 1018 4 6 0.00 0.00
11:57 pm 23:57 Cloudy with Mist and Fog 25 -3.9 23 -5 92 92 ENE 3 6 30.06 1018 4 6 0.00 0.00

Powered by AerisWeather